Orbital Elements at Epoch 2459200.5 (2020-Dec-17.0) TDB
Reference: JPL 16 (heliocentric ecliptic J2000)
Element | Value | Uncertainty (1-sigma) | Units |
e | .2078484159511224 | 3.932e-08 | |
a | 2.383753180522023 | 1.2759e-08 | au |
q | 1.88829385793207 | 9.5229e-08 | au |
i | 5.233786324228324 | 4.7762e-06 | deg |
node | 311.2836891806386 | 6.1724e-05 | deg |
peri | 320.7500468985011 | 6.3786e-05 | deg |
M | 141.6386842097558 | 1.8846e-05 | deg |
tp | 2458671.604663124686 (2019-Jul-07.10466312) | 6.8366e-05 | TDB |
period | 1344.281912370368 3.68 | 1.0793e-05 2.955e-08 | d yr |
n | .2678009699358471 | 2.1501e-09 | deg/d |
Q | 2.879212503111975 | 1.5411e-08 | au |
|
| | Orbit Determination Parameters
Additional Information
|